Location: Woodhurst
(52.3667°N, 0.0667°W)
Time: 06:07:49
(UTC+00:00)

Cosmos 1908 - Pass Details

Date: 19 May 2025
Orbit: 404 x 413 km, 82.5° (Epoch: 18 June)

Event Time Altitude Azimuth Distance (km) Brightness Sun altitude
Rises 23:01:46 0° 350° (N) 2,386 8.4 -16.7°
Reaches altitude 10° 23:03:49 10° 351° (N) 1,513 6.9 -16.7°
Maximum altitude 23:07:07 79° 78° (ENE) 433 2.7 -16.8°
Enters shadow 23:07:54 49° 155° (SSE) 552 2.9 -16.9°
